Weather History for Decatur, TX

Change the Weather History Date:

Monday, February 20, 2012

  Actual Average (KDTO) Record (KDTO)
Temperature  
Mean Temperature 54 °F -  
Max Temperature 68 °F 58 °F 82 °F (2005)
Min Temperature 41 °F 37 °F 30 °F (2006)
Degree Days  
Heating Degree Days 10    
Growing Degree Days 4 (Base 50)    
Moisture  
Dew Point 41 °F    
Average Humidity 73    
Maximum Humidity 100    
Minimum Humidity 30    
Precipitation  
Precipitation 0.00 in - - ()
Sea Level Pressure  
Sea Level Pressure 29.95 in    
Wind  
Wind Speed 13 mph (South)    
Max Wind Speed 23 mph    
Max Gust Speed 36 mph    
Visibility 8 miles    
Events      
Averages and records for this station are not official NWS values.
T = Trace of Precipitation, MM = Missing Value Source: NWS Daily Summary

Daily Weather History Graph

Daily Weather History Graph

Search for Another Location

Airport:

Trip Planner

Search our weather history database for the weather conditions in past years. The results will help you decide how hot, cold, wet, or windy it might be!

Date:

Astronomy

Feb. 20, 2012 Rise Set
Actual Time 7:09 AM CST 6:19 PM CST
Civil Twilight 6:44 AM CST 6:44 PM CST
Nautical Twilight 6:15 AM CST 7:13 PM CST
Astronomical Twilight 5:46 AM CST 7:42 PM CST
Moon 6:05 AM CST (2/20) 5:25 PM CST (2/20)
Length of Visible Light 12h 00m
Length of Day
11h 09m
Waning Crescent, 1% of the Moon is Illuminated
Feb 20
Waning Crescent
Feb 21
New
Feb 29
First Quarter
Mar 8
Full
Mar 14
Last Quarter

Hourly Weather History & Observations

Time (CST) Temp. Windchill Dew Point Humidity Pressure Visibility Wind Dir Wind Speed Gust Speed Precip Events Conditions
12:15 AM 44.6 °F 38.4 °F 41.0 °F 87% 29.98 in 7.0 mi SSE 12.7 mph - N/A   Clear
12:35 AM 44.6 °F 38.8 °F 41.0 °F 87% 29.99 in 10.0 mi SSE 11.5 mph - N/A   Clear
12:55 AM 44.6 °F 39.2 °F 41.0 °F 87% 29.99 in 7.0 mi SSE 10.4 mph - N/A   Clear
1:15 AM 44.6 °F 39.2 °F 41.0 °F 87% 29.99 in 10.0 mi SSE 10.4 mph - N/A   Clear
1:35 AM 44.6 °F 38.8 °F 41.0 °F 87% 29.99 in 7.0 mi SSE 11.5 mph - N/A   Clear
1:55 AM 44.6 °F 39.7 °F 39.2 °F 81% 29.99 in 7.0 mi SSE 9.2 mph - N/A   Clear
2:15 AM 42.8 °F 37.5 °F 39.2 °F 87% 29.98 in 7.0 mi SSE 9.2 mph - N/A   Clear
2:35 AM 42.8 °F 37.0 °F 39.2 °F 87% 29.98 in 7.0 mi SSE 10.4 mph - N/A   Clear
2:55 AM 42.8 °F 38.0 °F 41.0 °F 93% 29.97 in 7.0 mi SE 8.1 mph - N/A   Clear
3:15 AM 42.8 °F 37.5 °F 41.0 °F 93% 29.96 in 5.0 mi SE 9.2 mph - N/A   Clear
3:35 AM 42.8 °F 37.0 °F 41.0 °F 93% 29.96 in 5.0 mi SSE 10.4 mph - N/A   Clear
3:55 AM 42.8 °F 35.8 °F 41.0 °F 93% 29.96 in 7.0 mi SE 13.8 mph - N/A   Clear
4:15 AM 42.8 °F 36.6 °F 41.0 °F 93% 29.96 in 7.0 mi SSE 11.5 mph - N/A   Clear
4:35 AM 42.8 °F 37.0 °F 41.0 °F 93% 29.96 in 5.0 mi SSE 10.4 mph - N/A   Clear
4:55 AM 42.8 °F 35.8 °F 41.0 °F 93% 29.96 in 7.0 mi SSE 13.8 mph - N/A   Clear
5:15 AM 42.8 °F 36.6 °F 41.0 °F 93% 29.96 in 7.0 mi SE 11.5 mph - N/A   Clear
5:35 AM 42.8 °F 36.6 °F 41.0 °F 93% 29.96 in 7.0 mi SE 11.5 mph - N/A   Clear
5:55 AM 42.8 °F 37.0 °F 41.0 °F 93% 29.97 in 5.0 mi SE 10.4 mph - N/A   Clear
6:15 AM 41.0 °F 35.8 °F 41.0 °F 100% 29.99 in 4.0 mi SSE 8.1 mph - N/A   Clear
6:35 AM 41.0 °F 35.8 °F 39.2 °F 93% 29.99 in 4.0 mi SSE 8.1 mph - N/A   Clear
6:55 AM 42.8 °F 38.0 °F 41.0 °F 93% 29.99 in 5.0 mi SSE 8.1 mph - N/A   Scattered Clouds
7:15 AM 42.8 °F 36.6 °F 41.0 °F 93% 29.98 in 7.0 mi SSE 11.5 mph 16.1 mph N/A   Clear
7:35 AM 42.8 °F 36.6 °F 41.0 °F 93% 29.99 in 5.0 mi SSE 11.5 mph - N/A   Scattered Clouds
7:55 AM 44.6 °F 36.9 °F 42.8 °F 93% 30.00 in 7.0 mi South 18.4 mph 25.3 mph N/A   Mostly Cloudy
8:15 AM 44.6 °F 37.4 °F 42.8 °F 93% 30.00 in 5.0 mi South 16.1 mph 26.5 mph N/A   Overcast
8:35 AM 44.6 °F 37.2 °F 42.8 °F 93% 30.01 in 5.0 mi South 17.3 mph 24.2 mph N/A   Overcast
8:55 AM 46.4 °F 39.8 °F 42.8 °F 87% 30.00 in 7.0 mi South 16.1 mph 23.0 mph N/A   Overcast
9:15 AM 46.4 °F 39.2 °F 42.8 °F 87% 30.00 in 7.0 mi South 18.4 mph 25.3 mph N/A   Overcast
9:35 AM 46.4 °F 39.8 °F 44.6 °F 93% 29.99 in 10.0 mi South 16.1 mph 27.6 mph N/A   Overcast
9:55 AM 48.2 °F - 44.6 °F 87% 30.00 in 10.0 mi South 15.0 mph 18.4 mph N/A   Overcast
10:15 AM 50.0 °F - 44.6 °F 82% 29.98 in 10.0 mi South 15.0 mph 21.9 mph N/A   Overcast
10:35 AM 51.8 °F - 44.6 °F 76% 29.98 in 10.0 mi South 16.1 mph 24.2 mph N/A   Overcast
10:55 AM 51.8 °F - 44.6 °F 76% 29.98 in 10.0 mi South 15.0 mph 23.0 mph N/A   Overcast
11:15 AM 53.6 °F - 42.8 °F 67% 29.98 in 10.0 mi South 18.4 mph 27.6 mph N/A   Mostly Cloudy
11:35 AM 55.4 °F - 44.6 °F 67% 29.97 in 10.0 mi South 15.0 mph 24.2 mph N/A   Mostly Cloudy
11:55 AM 57.2 °F - 44.6 °F 63% 29.96 in 10.0 mi SSW 18.4 mph 24.2 mph N/A   Mostly Cloudy
12:15 PM 59.0 °F - 44.6 °F 59% 29.94 in 10.0 mi South 13.8 mph 21.9 mph N/A   Mostly Cloudy
12:35 PM 59.0 °F - 44.6 °F 59% 29.94 in 10.0 mi SSW 16.1 mph 25.3 mph N/A   Scattered Clouds
12:55 PM 60.8 °F - 44.6 °F 55% 29.92 in 10.0 mi SSW 18.4 mph 25.3 mph N/A   Scattered Clouds
1:15 PM 60.8 °F - 44.6 °F 55% 29.91 in 10.0 mi South 19.6 mph 28.8 mph N/A   Scattered Clouds
1:35 PM 60.8 °F - 44.6 °F 55% 29.90 in 10.0 mi SSW 17.3 mph 21.9 mph N/A   Clear
2:15 PM 62.6 °F - 44.6 °F 52% 29.88 in 10.0 mi South 15.0 mph 24.2 mph N/A   Clear
2:35 PM 64.4 °F - 44.6 °F 49% 29.87 in 10.0 mi South 17.3 mph 25.3 mph N/A   Clear
2:55 PM 64.4 °F - 44.6 °F 49% 29.87 in 10.0 mi SSW 16.1 mph - N/A   Scattered Clouds
3:15 PM 66.2 °F - 44.6 °F 46% 29.85 in 10.0 mi SSW 13.8 mph 24.2 mph N/A   Clear
3:35 PM 68.0 °F - 41.0 °F 37% 29.86 in 10.0 mi SW 20.7 mph 24.2 mph N/A   Scattered Clouds
3:55 PM 68.0 °F - 39.2 °F 35% 29.87 in 10.0 mi SW 15.0 mph 27.6 mph N/A   Scattered Clouds
4:15 PM 68.0 °F - 37.4 °F 33% 29.85 in 10.0 mi WSW 18.4 mph 25.3 mph N/A   Scattered Clouds
4:35 PM 68.0 °F - 35.6 °F 30% 29.84 in 10.0 mi SW 18.4 mph 25.3 mph N/A   Clear
4:55 PM 68.0 °F - 35.6 °F 30% 29.85 in 10.0 mi SW 18.4 mph 23.0 mph N/A   Clear
5:15 PM 68.0 °F - 35.6 °F 30% 29.85 in 10.0 mi WSW 15.0 mph 23.0 mph N/A   Clear
5:35 PM 68.0 °F - 35.6 °F 30% 29.87 in 10.0 mi WSW 11.5 mph 23.0 mph N/A   Clear
5:55 PM 66.2 °F - 33.8 °F 30% 29.88 in 10.0 mi West 13.8 mph 18.4 mph N/A   Clear
6:15 PM 64.4 °F - 32.0 °F 30% 29.91 in 10.0 mi WNW 23.0 mph 35.7 mph N/A   Clear
6:35 PM 60.8 °F - 12.2 °F 15% 29.95 in 7.0 mi WNW 15.0 mph 36.8 mph N/A   Mostly Cloudy
6:55 PM 59.0 °F - 10.4 °F 15% 29.97 in 5.0 mi WNW 16.1 mph 27.6 mph N/A   Haze
7:15 PM 57.2 °F - 12.2 °F 17% 29.99 in 7.0 mi WNW 13.8 mph 25.3 mph N/A   Overcast
7:35 PM 55.4 °F - 17.6 °F 23% 30.00 in 10.0 mi NW 12.7 mph 26.5 mph N/A   Mostly Cloudy
7:55 PM 55.4 °F - 21.2 °F 26% 30.01 in 10.0 mi NW 12.7 mph 28.8 mph N/A   Clear
8:15 PM 53.6 °F - 23.0 °F 30% 30.03 in 10.0 mi NW 11.5 mph 19.6 mph N/A   Clear
8:35 PM 51.8 °F - 23.0 °F 33% 30.04 in 10.0 mi NW 11.5 mph 17.3 mph N/A   Clear
8:55 PM 51.8 °F - 24.8 °F 35% 30.05 in 10.0 mi NW 8.1 mph 17.3 mph N/A   Clear
9:15 PM 50.0 °F - 24.8 °F 37% 30.06 in 10.0 mi NW 10.4 mph - N/A   Clear
9:35 PM 50.0 °F - 24.8 °F 37% 30.07 in 10.0 mi NW 9.2 mph - N/A   Clear
9:55 PM 50.0 °F - 26.6 °F 40% 30.07 in 10.0 mi NW 10.4 mph - N/A   Clear
10:15 PM 50.0 °F - 24.8 °F 37% 30.08 in 10.0 mi NNW 11.5 mph 20.7 mph N/A   Clear
10:35 PM 48.2 °F - 24.8 °F 40% 30.08 in 10.0 mi NNW 10.4 mph - N/A   Clear
10:55 PM 48.2 °F - 23.0 °F 37% 30.09 in 10.0 mi NNW 9.2 mph - N/A   Clear
11:15 PM 46.4 °F 45.2 °F 24.8 °F 43% 30.11 in 10.0 mi South 3.5 mph - N/A   Clear
11:35 PM 46.4 °F 44.3 °F 23.0 °F 40% 30.11 in 10.0 mi NNW 4.6 mph - N/A   Clear
11:55 PM 46.4 °F 42.9 °F 24.8 °F 43% 30.11 in 10.0 mi North 6.9 mph - N/A   Clear